Temp
68 68 67 67 68 69 69 69 70 69 67 66 67 67 66 67 68 67 67 67 67 68 69 69 70 70 71 70 67 67 65 65 67 67 68 68 67 67 67 67 67 67
67 68 67 67 67 68 69 69 70 69 69 67 67 67 67 68 68 69 67 66 66 66 67 68 67 68 68 69 68 66 65 67 66 69 67 66 67 68 67 68 67 68
67 66 67 67 67 68 68 69 69 70 69 69 68 68 68 69 68 69 69 68 66 66 67 67 67 67 67 68 67 65 65 66 67 68 68 67 65 67 68 68 67 67
66 66 66 67 67 67 68 68 69 70 70 70 69 70 69 68 67 67 69 69 68 67 67 67 67 67 68 69 68 65 66 66 68 69 67 67 67 66 66 67 66 66
66 66 66 66 67 67 66 67 68 69 70 70 71 70 69 69 67 67 68 69 68 67 67 67 66 65 66 67 68 65 66 65 66 66 66 66 67 68 66 65 67 66
66 67 67 67 66 65 65 66 67 67 68 68 69 70 69 69 69 68 68 68 68 67 67 67 67 66 66 66 66 66 66 65 65 66 66 67 66 66 67 67 66 65
64 65 64 66 65 65 65 65 65 65 66 67 68 69 70 69 69 69 69 69 69 68 68 67 67 66 66 65 65 65 65 65 65 66 66 66 66 65 65 66 65 65
64 64 64 64 64 64 64 65 65 65 66 67 67 68 70 70 70 69 68 67 68 70 69 68 66 66 66 65 64 64 64 64 64 64 65 65 65 65 65 64 64 64
64 64 63 63 63 63 64 65 65 66 67 65 66 67 69 70 69 69 68 69 67 65 68 69 68 66 65 64 64 64 64 64 64 64 65 65 65 64 65 66 65 64
64 64 63 63 63 63 63 64 65 65 66 66 66 67 67 68 69 70 70 69 68 65 65 67 68 67 66 65 65 65 64 64 64 65 64 64 65 66 65 64 65 64
63 63 63 63 63 63 63 64 64 65 65 66 66 66 66 66 67 69 68 68 67 67 67 65 64 65 66 66 66 65 65 65 65 65 64 64 65 66 65 64 63 63
63 63 63 64 64 64 64 64 65 65 65 65 65 65 65 65 65 66 66 66 68 68 68 66 66 65 65 66 67 66 64 64 64 64 64 64 65 65 64 64 64 64
63 62 63 63 63 64 64 64 65 64 64 64 63 63 63 62 63 63 64 65 66 67 65 64 65 65 64 65 66 66 65 65 64 64 64 63 64 64 65 65 65 66
62 63 63 63 64 64 64 63 64 63 63 62 62 60 60 60 61 61 62 63 63 63 64 63 63 64 63 59 57 60 61 63 63 63 63 63 64 64 65 65 65 64
62 63 63 63 63 63 63 62 62 62 62 61 60 59 59 59 59 60 59 60 60 61 62 62 62 59 50 49 49 50 52 57 62 63 63 63 62 63 64 65 65 65
62 61 62 62 61 61 61 61 61 61 60 59 59 59 58 58 58 58 58 57 57 58 59 59 60 54 49 45 46 47 47 52 57 61 62 62 63 63 63 65 65 64
61 60 61 60 60 60 60 60 60 59 59 58 58 58 57 57 57 56 56 56 55 55 55 56 58 51 45 42 42 43 45 48 52 56 61 62 62 62 63 63 64 65
60 60 59 59 60 59 59 59 59 58 57 57 57 56 56 56 55 55 54 54 54 53 53 53 55 47 42 42 42 41 42 44 48 53 58 61 63 63 63 63 63 63
59 59 59 59 59 59 59 59 58 57 56 56 55 56 56 55 55 54 53 53 52 51 51 52 53 47 43 42 41 40 39 41 47 53 56 59 61 62 63 63 63 61
59 58 58 58 59 59 59 59 57 56 56 56 55 55 55 55 54 53 52 52 51 50 50 50 51 46 42 41 40 39 39 39 44 50 55 58 61 62 62 63 63 62
58 58 57 57 58 58 58 58 57 56 56 55 55 54 54 53 54 53 52 51 50 50 49 48 49 44 41 40 39 39 39 39 46 52 56 58 60 62 63 63 63 62
57 56 56 57 57 57 57 56 56 56 55 55 55 55 54 54 54 54 52 50 50 49 48 47 47 43 41 40 39 39 39 46 52 55 56 58 59 61 62 62 62 62
56 55 55 55 56 56 56 55 55 55 55 56 54 54 52 52 52 52 52 50 49 48 47 46 47 44 41 39 39 39 42 49 54 55 57 58 60 61 60 59 59 61
56 55 54 54 55 55 55 55 55 56 55 55 54 53 52 52 52 52 51 50 48 47 47 46 46 45 41 40 39 39 42 50 54 55 54 53 52 51 51 51 50 49
56 56 55 54 54 54 55 54 54 54 55 55 55 54 53 53 52 51 50 50 49 48 48 46 46 45 42 40 40 39 41 48 51 50 48 48 48 49 49 48 48 47
57 56 55 55 54 54 55 54 55 54 54 53 53 54 53 52 52 51 49 48 48 47 46 46 45 45 44 40 40 40 40 44 48 47 46 45 46 45 46 46 46 45
MSLP
1016.11 1016.11 1016.11 1015.99 1015.79 1015.51 1015.31 1015.19 1014.95 1014.91 1014.99 1014.95 1014.99 1014.79 1014.71 1014.67 1014.67 1014.71 1014.67 1014.67 1014.63 1014.59 1014.39 1014.23 1014.07 1013.99 1013.91 1014.11 1014.55 1014.67 1014.71 1014.71 1014.75 1014.67 1014.63 1014.67 1014.71 1014.71 1014.83 1014.87 1014.91 1014.87
1016.35 1016.31 1016.23 1016.15 1015.99 1015.67 1015.39 1015.15 1014.95 1014.79 1014.71 1014.67 1014.79 1014.71 1014.51 1014.43 1014.43 1014.43 1014.55 1014.63 1014.47 1014.39 1014.27 1014.15 1014.15 1014.15 1013.99 1013.83 1013.99 1014.59 1014.95 1014.67 1014.51 1014.23 1014.43 1014.63 1014.43 1014.39 1014.43 1014.43 1014.55 1014.59
1016.63 1016.55 1016.39 1016.23 1016.07 1015.83 1015.55 1015.23 1014.95 1014.75 1014.55 1014.51 1014.47 1014.51 1014.43 1014.27 1014.27 1014.15 1014.07 1014.07 1014.31 1014.31 1014.19 1014.07 1013.99 1013.91 1013.87 1013.79 1013.87 1014.31 1014.63 1014.47 1014.23 1013.91 1013.91 1014.07 1014.27 1014.23 1014.03 1014.07 1014.15 1014.27
1016.83 1016.75 1016.63 1016.39 1016.07 1015.91 1015.67 1015.43 1015.07 1014.79 1014.51 1014.35 1014.31 1014.19 1014.11 1014.03 1014.07 1014.19 1013.99 1013.91 1014.03 1014.07 1013.87 1013.79 1013.71 1013.63 1013.71 1013.71 1013.79 1013.95 1014.11 1014.03 1013.79 1013.63 1013.67 1013.63 1013.67 1013.87 1013.95 1013.87 1013.91 1014.11
1016.95 1016.79 1016.63 1016.51 1016.31 1016.15 1015.99 1015.75 1015.39 1014.95 1014.71 1014.39 1014.11 1014.07 1014.11 1014.03 1013.99 1014.07 1013.91 1013.75 1013.75 1013.83 1013.75 1013.63 1013.59 1013.63 1013.63 1013.71 1013.75 1013.87 1013.91 1013.91 1013.79 1013.75 1013.63 1013.47 1013.31 1013.35 1013.55 1013.75 1013.71 1013.83
1017.07 1016.95 1016.71 1016.59 1016.51 1016.43 1016.35 1016.11 1015.79 1015.51 1015.15 1014.83 1014.51 1014.07 1013.99 1013.95 1013.91 1013.87 1013.83 1013.71 1013.59 1013.75 1013.71 1013.55 1013.51 1013.43 1013.43 1013.47 1013.59 1013.67 1013.63 1013.71 1013.71 1013.87 1013.75 1013.47 1013.23 1013.15 1013.27 1013.31 1013.51 1013.83
1017.31 1017.19 1017.07 1016.87 1016.83 1016.71 1016.55 1016.35 1016.15 1015.83 1015.47 1015.11 1014.71 1014.31 1013.91 1013.83 1013.79 1013.63 1013.59 1013.59 1013.47 1013.51 1013.59 1013.63 1013.51 1013.35 1013.23 1013.39 1013.55 1013.55 1013.43 1013.35 1013.39 1013.59 1013.71 1013.55 1013.31 1013.27 1013.31 1013.23 1013.31 1013.59
1017.39 1017.31 1017.31 1017.23 1017.11 1016.91 1016.75 1016.47 1016.19 1015.87 1015.43 1015.07 1014.79 1014.35 1013.95 1013.71 1013.63 1013.55 1013.51 1013.75 1013.63 1013.35 1013.39 1013.47 1013.51 1013.23 1013.03 1013.11 1013.31 1013.39 1013.31 1013.15 1012.99 1013.23 1013.63 1013.55 1013.39 1013.27 1012.95 1012.99 1013.23 1013.39
1017.43 1017.47 1017.51 1017.47 1017.31 1017.11 1016.87 1016.55 1016.19 1015.87 1015.51 1015.31 1014.99 1014.63 1014.15 1013.83 1013.55 1013.39 1013.31 1013.23 1013.51 1013.75 1013.47 1013.27 1013.19 1013.11 1012.95 1012.95 1012.99 1013.07 1013.03 1012.71 1012.63 1012.75 1012.99 1013.19 1013.15 1012.91 1012.79 1012.83 1013.03 1013.19
1017.67 1017.71 1017.71 1017.55 1017.35 1017.15 1016.95 1016.59 1016.23 1015.91 1015.59 1015.35 1015.11 1014.83 1014.55 1014.19 1013.79 1013.47 1013.23 1013.19 1013.15 1013.43 1013.71 1013.39 1013.15 1013.11 1012.99 1012.75 1012.63 1012.67 1012.67 1012.59 1012.59 1012.55 1012.79 1013.15 1013.03 1012.87 1012.67 1012.95 1013.03 1013.03
1017.87 1017.87 1017.79 1017.55 1017.35 1017.11 1016.83 1016.51 1016.31 1016.03 1015.71 1015.47 1015.15 1014.95 1014.67 1014.43 1014.07 1013.71 1013.59 1013.43 1013.27 1013.23 1013.23 1013.35 1013.39 1013.19 1012.99 1012.63 1012.39 1012.39 1012.55 1012.59 1012.59 1012.67 1012.75 1012.87 1012.87 1012.51 1012.51 1012.59 1012.67 1012.87
1018.03 1017.99 1017.87 1017.55 1017.39 1017.07 1016.79 1016.59 1016.31 1016.07 1015.91 1015.67 1015.47 1015.27 1014.99 1014.75 1014.59 1014.35 1014.11 1013.83 1013.51 1013.23 1013.07 1013.07 1013.03 1012.91 1012.67 1012.47 1012.31 1012.31 1012.47 1012.51 1012.27 1012.23 1012.31 1012.51 1012.67 1012.35 1012.23 1012.15 1012.19 1012.35
1018.27 1018.15 1017.95 1017.67 1017.51 1017.27 1017.03 1016.79 1016.51 1016.31 1016.19 1016.07 1015.87 1015.71 1015.51 1015.35 1015.11 1014.83 1014.51 1014.23 1013.87 1013.59 1013.55 1013.43 1013.11 1012.75 1012.59 1012.43 1012.31 1012.23 1012.23 1012.19 1012.19 1011.99 1011.91 1012.15 1012.51 1012.55 1012.11 1011.79 1011.75 1011.75
1018.51 1018.31 1018.15 1017.95 1017.79 1017.59 1017.39 1017.15 1016.87 1016.67 1016.59 1016.47 1016.31 1016.27 1016.11 1015.87 1015.63 1015.31 1015.03 1014.75 1014.43 1014.19 1013.87 1013.51 1013.23 1012.83 1012.91 1013.55 1013.59 1013.15 1012.67 1012.23 1011.95 1011.99 1011.99 1011.83 1011.75 1011.59 1011.47 1011.43 1011.23 1011.15
1018.79 1018.55 1018.39 1018.35 1018.23 1018.03 1017.79 1017.51 1017.31 1017.15 1016.99 1016.91 1016.83 1016.79 1016.67 1016.47 1016.15 1015.83 1015.55 1015.23 1014.91 1014.55 1014.23 1013.91 1013.51 1013.63 1014.67 1014.83 1014.67 1014.23 1013.95 1013.11 1012.15 1011.87 1011.75 1011.59 1011.51 1011.31 1011.07 1011.11 1011.11 1011.03
1019.19 1019.07 1018.83 1018.75 1018.63 1018.43 1018.23 1017.99 1017.75 1017.55 1017.43 1017.35 1017.27 1017.23 1017.11 1016.83 1016.55 1016.35 1016.07 1015.79 1015.51 1015.11 1014.83 1014.43 1013.91 1014.47 1014.91 1014.83 1014.87 1014.95 1014.51 1013.59 1012.67 1011.95 1011.59 1011.35 1011.11 1010.91 1010.99 1010.75 1010.59 1010.75
1019.55 1019.39 1019.19 1018.99 1018.87 1018.79 1018.59 1018.35 1018.19 1018.03 1017.91 1017.75 1017.59 1017.47 1017.39 1017.19 1017.03 1016.83 1016.55 1016.35 1016.11 1015.83 1015.51 1015.11 1014.59 1014.91 1014.91 1015.07 1014.99 1014.79 1014.59 1013.95 1013.23 1012.35 1011.51 1011.07 1010.87 1010.79 1010.59 1010.31 1010.27 1010.35
1019.79 1019.71 1019.51 1019.31 1019.15 1019.07 1018.87 1018.67 1018.59 1018.51 1018.35 1018.15 1017.95 1017.79 1017.67 1017.55 1017.47 1017.27 1017.07 1016.91 1016.67 1016.47 1016.19 1015.79 1015.23 1015.19 1015.19 1015.19 1014.99 1014.67 1014.47 1014.19 1013.47 1012.59 1011.67 1010.87 1010.51 1010.35 1010.15 1010.03 1009.99 1010.03
1020.11 1020.03 1019.79 1019.55 1019.35 1019.11 1018.99 1018.87 1018.87 1018.79 1018.63 1018.51 1018.39 1018.19 1017.99 1017.83 1017.75 1017.63 1017.55 1017.43 1017.27 1016.99 1016.67 1016.23 1015.75 1015.59 1015.63 1015.31 1014.95 1014.59 1014.19 1013.91 1013.15 1012.27 1011.51 1010.83 1010.31 1010.07 1009.87 1009.79 1009.71 1009.83
1020.51 1020.35 1020.19 1019.95 1019.63 1019.43 1019.11 1018.95 1018.95 1019.03 1018.95 1018.91 1018.75 1018.51 1018.35 1018.11 1017.91 1017.91 1017.87 1017.79 1017.63 1017.35 1017.07 1016.67 1016.19 1016.11 1015.99 1015.47 1014.91 1014.35 1013.87 1013.59 1012.91 1011.99 1011.15 1010.59 1010.07 1009.67 1009.51 1009.39 1009.35 1009.47
1020.79 1020.67 1020.55 1020.35 1019.99 1019.71 1019.55 1019.31 1019.19 1019.11 1019.07 1019.03 1018.91 1018.79 1018.71 1018.47 1018.19 1018.11 1018.19 1018.11 1017.95 1017.67 1017.39 1017.03 1016.63 1016.55 1016.19 1015.59 1014.87 1014.15 1013.39 1012.87 1012.11 1011.31 1010.59 1010.15 1009.75 1009.35 1009.07 1009.03 1009.03 1009.11
1021.19 1021.11 1020.95 1020.67 1020.31 1020.03 1019.83 1019.71 1019.55 1019.35 1019.23 1019.15 1019.11 1018.99 1018.99 1018.87 1018.71 1018.47 1018.47 1018.47 1018.39 1018.07 1017.79 1017.43 1016.99 1016.75 1016.35 1015.67 1014.87 1013.95 1013.03 1011.95 1011.15 1010.67 1010.27 1009.91 1009.59 1009.19 1008.87 1008.79 1008.79 1008.79
1021.67 1021.59 1021.39 1021.03 1020.63 1020.39 1020.19 1020.07 1019.83 1019.63 1019.47 1019.31 1019.27 1019.23 1019.35 1019.31 1019.23 1018.95 1018.91 1018.95 1018.83 1018.55 1018.23 1017.83 1017.31 1016.91 1016.59 1015.87 1014.99 1014.07 1012.79 1011.59 1010.75 1010.35 1010.03 1009.63 1009.27 1009.03 1008.95 1008.91 1008.75 1008.59
1021.95 1021.91 1021.75 1021.43 1021.11 1020.79 1020.59 1020.39 1020.11 1019.87 1019.79 1019.63 1019.47 1019.43 1019.55 1019.63 1019.51 1019.31 1019.27 1019.31 1019.23 1018.99 1018.71 1018.31 1017.79 1017.31 1016.87 1016.15 1015.31 1014.35 1013.31 1012.03 1011.11 1010.55 1010.67 1010.51 1010.31 1010.19 1010.15 1010.03 1009.63 1008.99
1022.15 1022.03 1021.95 1021.75 1021.51 1021.27 1020.99 1020.83 1020.63 1020.39 1020.23 1020.03 1019.83 1019.67 1019.75 1019.75 1019.71 1019.63 1019.67 1019.59 1019.47 1019.35 1019.07 1018.71 1018.27 1017.75 1017.19 1016.63 1015.79 1014.99 1014.07 1012.95 1012.27 1011.95 1011.91 1011.91 1011.71 1011.23 1010.87 1010.83 1010.19 1009.55
1022.19 1022.15 1022.03 1021.91 1021.75 1021.55 1021.35 1021.19 1021.07 1020.87 1020.71 1020.55 1020.39 1020.27 1020.19 1020.03 1019.91 1019.91 1019.95 1019.99 1019.87 1019.71 1019.51 1019.15 1018.79 1018.35 1017.79 1017.15 1016.39 1015.67 1015.07 1014.19 1013.47 1012.95 1012.99 1012.91 1012.75 1012.59 1012.15 1011.75 1010.79 1010.19
Wind_Speed
8 8 8 8 8 8 8 8 7 4 3 3 4 4 5 4 3 4 5 3 3 6 7 7 7 6 6 8 9 5 6 8 8 8 9 8 9 10 10 10 9 8
8 7 7 6 6 7 8 8 7 5 5 3 2 4 5 5 5 4 3 4 4 6 7 6 6 7 8 6 5 5 7 9 11 7 9 11 11 10 11 10 10 8
9 10 9 8 7 7 8 8 8 7 5 3 4 4 4 3 5 5 4 3 3 5 6 6 6 7 9 8 5 4 8 9 10 9 8 9 9 10 9 9 9 11
8 7 8 9 9 9 9 8 8 7 7 5 4 5 4 4 4 8 6 6 4 5 5 5 7 6 6 6 5 5 8 9 9 8 8 8 8 9 8 8 8 9
9 9 8 8 9 10 10 10 10 10 9 7 5 3 6 4 4 7 8 6 5 6 6 6 6 5 6 6 5 4 7 8 8 8 7 8 7 7 7 8 10 9
9 10 10 9 10 10 9 10 11 12 12 11 10 6 3 6 6 6 6 6 4 4 5 5 6 6 6 6 5 6 6 7 8 9 10 9 8 6 6 9 7 7
10 10 12 11 11 10 9 9 10 11 10 10 10 10 7 4 6 8 8 6 5 5 5 5 5 6 5 4 4 6 6 6 7 9 11 10 7 6 7 9 8 11
10 9 10 10 11 9 10 10 10 9 10 10 9 9 10 7 6 6 6 8 9 6 5 5 5 6 6 5 5 6 6 6 6 9 10 12 8 10 9 6 8 9
10 10 11 11 11 10 10 11 9 9 10 10 11 11 12 12 8 6 6 7 5 8 8 7 5 6 6 7 8 7 7 8 7 8 10 11 11 9 9 8 7 8
10 9 10 9 9 8 9 10 10 10 9 10 10 9 12 11 13 12 9 8 7 4 8 9 7 6 7 7 9 9 9 9 8 9 9 12 12 10 8 8 11 10
9 9 9 9 9 8 8 8 9 9 9 11 10 11 11 10 11 12 11 11 10 8 6 5 9 9 9 9 8 7 8 8 7 6 6 9 10 9 6 7 8 10
9 9 10 10 10 9 9 10 9 9 10 10 12 13 12 11 12 11 11 12 11 10 10 8 7 6 9 10 9 7 6 7 8 7 9 10 11 5 7 6 8 8
10 10 10 9 10 10 10 11 11 11 12 12 12 13 13 13 13 13 12 12 12 12 11 11 9 9 9 8 9 7 8 8 8 8 9 8 8 9 10 8 8 8
9 9 10 10 10 11 11 11 11 12 11 12 12 13 13 14 14 14 12 12 11 11 11 9 11 11 10 14 14 14 11 10 8 8 9 11 10 9 7 7 9 10
10 9 9 11 12 11 11 12 12 11 11 12 12 12 11 13 14 14 14 14 13 13 13 11 9 9 9 8 9 12 11 12 9 7 9 8 9 12 11 9 10 9
11 11 11 10 11 12 11 12 12 11 11 12 13 13 13 13 14 14 14 14 14 14 13 11 9 6 14 20 17 10 10 10 11 9 8 9 10 8 8 10 9 7
11 11 11 12 11 11 11 13 14 12 12 13 12 13 13 13 13 14 14 14 14 14 14 11 10 9 22 20 19 20 12 10 10 12 10 9 9 9 10 10 9 9
11 12 12 12 12 13 13 13 13 13 13 13 12 13 11 11 13 14 14 14 13 14 13 12 11 13 22 21 21 20 16 10 8 9 10 10 8 9 9 9 9 8
13 12 13 12 12 12 10 11 13 13 14 14 14 12 10 12 14 13 13 14 13 14 14 13 12 15 20 23 23 21 18 14 8 9 9 11 10 9 8 8 7 6
12 13 13 13 12 12 11 11 12 12 12 10 10 11 11 11 10 12 11 13 14 14 13 13 12 17 22 24 24 22 19 15 9 10 9 9 11 10 9 9 9 9
12 13 13 13 12 11 11 12 12 10 11 10 9 10 11 11 11 10 11 12 14 13 13 13 11 18 23 25 24 23 21 15 7 8 8 9 10 10 9 9 9 7
11 11 12 12 12 12 12 12 11 11 11 9 9 9 9 10 11 9 11 13 14 15 14 15 13 19 25 26 25 23 22 9 7 8 8 7 9 10 9 6 5 6
12 12 11 11 12 12 12 11 11 11 10 9 9 10 10 11 11 10 11 12 15 14 16 16 16 20 25 26 25 25 17 9 8 6 7 7 6 7 5 4 3 6
11 11 11 11 12 13 12 11 10 9 9 9 9 9 10 10 10 10 10 10 13 14 14 15 16 19 25 26 26 26 21 12 12 9 9 10 8 8 7 6 6 13
10 10 10 10 11 11 11 12 12 11 11 10 10 9 9 9 9 9 10 10 12 12 17 15 14 17 23 25 27 26 21 11 11 9 11 12 11 9 8 6 6 10
9 10 9 9 10 10 10 11 10 10 11 11 11 10 10 9 9 8 10 11 12 13 13 13 15 15 19 26 26 26 26 14 11 11 11 10 10 9 9 9 7 8
Wind_Direction
358 356 352 342 336 332 338 339 337 331 248 268 282 282 274 268 242 228 211 214 262 263 254 257 269 266 229 215 218 207 245 238 236 225 227 226 222 215 213 210 208 205
1 352 348 334 331 330 328 330 330 330 303 259 233 264 277 275 264 242 206 226 230 257 270 268 270 273 270 259 231 221 232 234 233 222 218 226 227 218 217 212 210 208
1 350 345 339 333 331 328 328 325 321 315 303 280 260 268 280 291 272 243 193 205 243 250 249 243 241 252 253 221 219 241 237 236 226 222 226 230 229 217 216 214 213
354 355 343 341 341 342 340 328 320 319 317 314 316 306 285 257 280 301 279 260 224 237 243 249 248 260 273 269 246 224 241 245 241 232 223 227 224 224 226 226 225 221
352 353 353 345 348 347 342 332 327 325 324 323 318 327 305 293 257 250 262 255 230 236 246 245 250 249 254 271 278 253 246 249 257 256 238 231 234 220 211 225 220 210
2 352 354 354 352 348 338 335 335 333 332 334 331 312 286 290 291 283 280 271 265 246 240 247 255 255 251 247 248 253 249 248 247 251 251 240 234 230 222 221 214 227
4 359 358 355 353 345 338 342 337 329 325 323 321 322 319 304 303 302 302 294 271 262 265 267 250 257 261 257 249 251 247 247 261 258 250 249 237 244 248 236 217 221
5 4 0 356 346 345 343 339 333 324 323 326 325 320 318 313 292 300 312 304 297 289 288 274 267 265 267 263 248 242 240 241 242 250 260 254 229 227 227 242 242 238
2 10 358 355 347 346 341 338 332 334 333 337 336 334 331 329 321 300 290 287 287 295 291 283 264 253 249 251 254 248 243 239 230 236 244 248 240 227 229 223 232 237
7 8 354 343 344 345 340 338 340 336 337 334 333 332 334 335 334 332 323 316 295 278 285 285 275 263 258 254 254 251 249 248 244 234 234 252 251 242 219 225 229 232
8 6 351 345 353 340 339 346 344 338 337 338 338 338 339 336 337 340 346 342 335 318 288 267 276 286 281 263 255 259 266 271 277 290 286 277 270 244 236 229 233 237
10 6 350 349 350 342 350 355 349 352 351 348 347 345 344 348 347 348 343 340 337 337 333 322 297 263 261 272 272 269 270 278 275 260 251 249 253 265 252 234 233 231
7 357 348 353 353 351 358 354 357 0 359 358 353 350 351 350 350 348 346 344 345 350 353 346 319 293 287 281 282 278 267 260 254 258 257 264 270 250 241 244 239 233
358 358 351 359 354 357 357 353 358 2 3 1 357 358 354 351 349 350 348 348 348 344 344 339 338 329 349 2 353 342 326 287 263 272 263 249 230 240 238 235 239 242
358 1 0 6 1 356 357 357 1 1 3 3 3 0 357 355 350 353 352 350 351 348 346 344 332 21 26 6 359 353 347 327 305 281 272 255 240 240 241 238 235 233
5 4 2 7 4 360 360 360 358 1 4 3 5 2 0 358 355 356 356 354 352 352 346 343 340 39 5 7 358 354 333 322 311 286 274 270 256 243 244 248 238 225
8 6 2 5 6 4 2 1 3 3 2 2 3 4 2 1 358 358 359 354 354 351 347 344 339 8 4 359 349 342 340 323 318 310 285 258 256 253 243 233 233 232
10 8 6 7 8 6 5 4 4 5 2 1 1 1 3 3 2 1 360 357 355 351 349 346 337 13 357 349 340 334 330 320 300 292 290 278 260 251 247 241 230 219
10 8 6 6 7 6 7 9 6 6 4 3 1 357 358 3 3 1 2 358 356 353 349 347 338 360 349 341 335 329 324 321 297 287 285 284 265 246 244 248 235 211
10 9 7 5 4 3 0 9 10 9 6 4 357 358 358 357 2 6 5 359 357 353 349 345 345 351 343 338 333 328 322 319 283 282 276 275 275 255 238 239 230 221
8 10 8 3 2 2 3 4 5 10 10 5 360 3 1 353 359 7 8 2 356 354 350 347 349 348 344 339 334 328 324 315 267 272 274 277 280 273 248 237 233 215
9 9 7 4 1 4 4 6 3 4 9 6 3 2 7 1 359 5 7 4 358 355 353 349 347 352 348 342 338 333 328 309 286 288 280 281 282 280 263 250 242 201
14 9 6 359 1 6 7 6 3 2 7 2 7 9 8 7 359 3 8 5 1 357 359 354 352 353 351 348 345 343 339 322 305 291 287 274 281 284 297 320 279 228
17 11 7 1 2 6 4 3 359 4 9 1 4 13 14 9 3 5 13 9 2 2 357 358 356 356 356 354 355 354 354 348 352 8 15 19 30 38 23 0 21 26
19 16 12 7 4 2 6 6 2 1 6 2 1 8 15 11 9 13 16 12 8 4 2 4 1 357 357 359 2 3 2 350 7 21 21 14 6 13 16 358 360 37
24 21 17 14 11 4 9 11 6 5 6 7 4 9 6 7 10 18 23 20 15 13 11 5 4 2 0 3 5 9 10 6 10 21 20 12 15 5 3 346 1 27